| time (UTC) | temp C | wind direction | speed KPH | gust KPH | rain 1hr cm | rain 24hr cm | rain mn cm | humidity % | barometer mb |
| 20260506011813 | 8 | 250 | 19.3 | 0.0 | 0.00 | 0.00 | 0.00 | 81 | |
| 20260506001712 | 8 | 240 | 22.5 | 0.0 | 0.00 | 0.00 | 0.00 | 81 | |
| 20260505231712 | 10 | 240 | 14.5 | 0.0 | 0.00 | 0.00 | 0.00 | 71 | |
| 20260505221711 | 10 | 280 | 8.0 | 0.0 | 0.00 | 0.00 | 0.00 | 87 | |
| 20260505211728 | 11 | 240 | 8.0 | 0.0 | 0.00 | 0.00 | 0.00 | 71 | |
| 20260505201728 | 12 | 250 | 14.5 | 0.0 | 0.00 | 0.00 | 0.00 | 66 | |
| 20260505191729 | 12 | 240 | 19.3 | 0.0 | 0.00 | 0.00 | 0.00 | 58 | |
| 20260505181712 | 13 | 140 | 3.2 | 0.0 | 0.00 | 0.00 | 0.00 | 62 | |
| 20260505171713 | 16 | 110 | 11.3 | 0.0 | 0.00 | 0.00 | 0.00 | 51 | |
| 20260505161812 | 17 | 30 | 8.0 | 0.0 | 0.00 | 0.00 | 0.00 | 42 | |
| 20260505151711 | 18 | 60 | 8.0 | 0.0 | 0.00 | 0.00 | 0.00 | 42 | |
| 20260505121713 | 17 | 0 | 8.0 | 0.0 | 0.00 | 0.00 | 0.00 | 45 | |
| 20260505111712 | 17 | 350 | 8.0 | 0.0 | 0.00 | 0.00 | 0.00 | 45 | |
| 20260505101712 | 17 | 0 | 8.0 | 0.0 | 0.00 | 0.00 | 0.00 | 36 | |
| 20260505091712 | 17 | 0 | 8.0 | 0.0 | 0.00 | 0.00 | 0.00 | 45 | |
| 20260505081713 | 17 | 10 | 8.0 | 0.0 | 0.00 | 0.00 | 0.00 | 45 | |
| 20260505071711 | 16 | 320 | 8.0 | 0.0 | 0.00 | 0.00 | 0.00 | 48 | |
| 20260505061712 | 16 | 240 | 3.2 | 0.0 | 0.00 | 0.00 | 0.00 | 44 | |
| 20260505051712 | 12 | 230 | 3.2 | 0.0 | 0.00 | 0.00 | 0.00 | 62 | |
| 20260505041712 | 8 | 210 | 11.3 | 0.0 | 0.00 | 0.00 | 0.00 | 70 | |
| 20260505031712 | 10 | 220 | 8.0 | 0.0 | 0.00 | 0.00 | 0.00 | 66 | |
| 20260505021711 | 10 | 220 | 11.3 | 0.0 | 0.00 | 0.00 | 0.00 | 66 |